QPF
0.00 0.00 0.01 0.01 0.01 0.01 0.02 0.02 0.02 0.01 0.01 0.01 0.01 0.00 0.01 0.01 0.01 0.01 0.01 0.02 0.02 0.02 0.03 0.03 0.03 0.03 0.02 0.02 0.03 0.03 0.03 0.05 0.06 0.03 0.02 0.02 0.03 0.03 0.04 0.07 0.11 0.03 0.02
0.00 0.00 0.00 0.01 0.01 0.01 0.01 0.02 0.02 0.01 0.01 0.01 0.01 0.01 0.01 0.01 0.02 0.02 0.02 0.03 0.03 0.03 0.04 0.04 0.03 0.02 0.02 0.02 0.02 0.02 0.04 0.06 0.07 0.05 0.04 0.03 0.02 0.04 0.06 0.11 0.13 0.03 0.04
0.00 0.00 0.00 0.00 0.01 0.01 0.01 0.02 0.02 0.02 0.02 0.02 0.02 0.02 0.01 0.02 0.03 0.03 0.04 0.04 0.03 0.03 0.03 0.04 0.03 0.02 0.02 0.02 0.02 0.02 0.03 0.05 0.09 0.10 0.13 0.10 0.03 0.04 0.06 0.08 0.06 0.05 0.05
0.00 0.00 0.00 0.00 0.01 0.01 0.01 0.02 0.02 0.03 0.03 0.02 0.02 0.03 0.02 0.03 0.04 0.03 0.04 0.04 0.04 0.03 0.04 0.04 0.03 0.03 0.02 0.03 0.03 0.02 0.02 0.04 0.10 0.20 0.17 0.07 0.03 0.02 0.03 0.04 0.05 0.06 0.06
0.00 0.00 0.00 0.00 0.00 0.01 0.01 0.02 0.02 0.02 0.02 0.03 0.02 0.03 0.03 0.04 0.04 0.05 0.06 0.05 0.05 0.05 0.04 0.04 0.04 0.03 0.02 0.03 0.03 0.02 0.02 0.04 0.09 0.17 0.11 0.08 0.04 0.03 0.03 0.04 0.05 0.05 0.04
0.00 0.00 0.00 0.00 0.01 0.01 0.01 0.01 0.02 0.02 0.02 0.03 0.03 0.03 0.03 0.04 0.05 0.04 0.03 0.04 0.05 0.04 0.03 0.02 0.03 0.03 0.02 0.02 0.03 0.04 0.04 0.07 0.13 0.07 0.06 0.09 0.03 0.03 0.05 0.06 0.05 0.04 0.04
0.00 0.00 0.00 0.00 0.00 0.00 0.01 0.01 0.02 0.02 0.01 0.02 0.02 0.03 0.04 0.05 0.05 0.03 0.03 0.03 0.04 0.03 0.02 0.02 0.03 0.03 0.02 0.01 0.01 0.02 0.03 0.07 0.09 0.03 0.05 0.07 0.02 0.02 0.04 0.04 0.04 0.04 0.04
0.00 0.00 0.00 0.00 0.00 0.00 0.01 0.01 0.01 0.01 0.01 0.02 0.02 0.02 0.03 0.04 0.04 0.03 0.03 0.03 0.03 0.04 0.02 0.02 0.03 0.03 0.04 0.03 0.02 0.02 0.02 0.04 0.03 0.02 0.05 0.04 0.01 0.01 0.01 0.01 0.02 0.03 0.03
0.00 0.00 0.00 0.00 0.00 0.00 0.00 0.01 0.01 0.01 0.01 0.01 0.01 0.02 0.02 0.03 0.03 0.02 0.03 0.03 0.03 0.04 0.03 0.03 0.03 0.02 0.02 0.02 0.02 0.01 0.01 0.03 0.03 0.01 0.02 0.01 0.00 0.01 0.01 0.02 0.02 0.02 0.03
0.00 0.00 0.01 0.00 0.00 0.00 0.00 0.00 0.01 0.01 0.01 0.01 0.01 0.01 0.01 0.02 0.01 0.02 0.02 0.02 0.02 0.03 0.03 0.03 0.03 0.02 0.02 0.02 0.02 0.01 0.01 0.02 0.03 0.02 0.01 0.01 0.01 0.01 0.01 0.02 0.02 0.02 0.03
0.01 0.03 0.06 0.02 0.01 0.02 0.02 0.01 0.01 0.01 0.01 0.02 0.02 0.01 0.03 0.07 0.05 0.04 0.03 0.01 0.01 0.01 0.01 0.02 0.02 0.01 0.01 0.01 0.01 0.00 0.01 0.03 0.09 0.03 0.02 0.01 0.01 0.01 0.01 0.02 0.03 0.02 0.04
0.02 0.03 0.08 0.09 0.04 0.03 0.03 0.02 0.03 0.03 0.02 0.05 0.06 0.03 0.08 0.14 0.12 0.08 0.04 0.01 0.01 0.01 0.01 0.01 0.01 0.01 0.03 0.02 0.00 0.01 0.01 0.05 0.07 0.03 0.01 0.01 0.01 0.02 0.02 0.01 0.02 0.02 0.02
0.01 0.02 0.06 0.09 0.05 0.03 0.04 0.02 0.04 0.06 0.06 0.07 0.09 0.07 0.10 0.09 0.06 0.06 0.04 0.02 0.03 0.03 0.04 0.02 0.02 0.06 0.07 0.06 0.04 0.01 0.02 0.04 0.08 0.07 0.03 0.01 0.01 0.02 0.02 0.01 0.01 0.01 0.01
0.02 0.03 0.04 0.07 0.05 0.04 0.03 0.03 0.03 0.03 0.04 0.05 0.06 0.05 0.06 0.08 0.08 0.07 0.06 0.07 0.07 0.08 0.10 0.07 0.07 0.07 0.05 0.02 0.03 0.02 0.02 0.04 0.11 0.13 0.07 0.01 0.00 0.01 0.01 0.01 0.01 0.01 0.01
0.03 0.03 0.03 0.03 0.03 0.04 0.05 0.05 0.03 0.03 0.03 0.04 0.05 0.04 0.04 0.04 0.07 0.07 0.07 0.08 0.07 0.07 0.05 0.07 0.06 0.05 0.03 0.01 0.01 0.02 0.03 0.04 0.08 0.08 0.04 0.01 0.00 0.00 0.01 0.01 0.01 0.00 0.00
0.03 0.03 0.03 0.03 0.03 0.03 0.03 0.05 0.05 0.03 0.04 0.05 0.05 0.03 0.02 0.05 0.07 0.07 0.05 0.05 0.05 0.04 0.03 0.03 0.03 0.03 0.03 0.03 0.04 0.04 0.02 0.02 0.04 0.06 0.03 0.02 0.01 0.00 0.00 0.01 0.02 0.01 0.00
0.05 0.04 0.04 0.04 0.04 0.04 0.04 0.05 0.04 0.02 0.02 0.04 0.06 0.05 0.02 0.02 0.05 0.05 0.05 0.04 0.03 0.02 0.03 0.04 0.04 0.04 0.05 0.05 0.05 0.05 0.04 0.02 0.03 0.04 0.05 0.04 0.01 0.00 0.00 0.01 0.01 0.02 0.01
0.08 0.06 0.05 0.04 0.07 0.05 0.05 0.05 0.03 0.02 0.02 0.04 0.04 0.05 0.03 0.03 0.03 0.04 0.05 0.04 0.02 0.02 0.03 0.04 0.04 0.05 0.07 0.07 0.06 0.06 0.05 0.04 0.03 0.03 0.04 0.03 0.03 0.02 0.01 0.00 0.01 0.00 0.01
0.06 0.06 0.06 0.07 0.08 0.07 0.05 0.05 0.06 0.05 0.05 0.03 0.03 0.04 0.04 0.03 0.03 0.02 0.03 0.05 0.04 0.03 0.02 0.03 0.04 0.05 0.07 0.07 0.05 0.05 0.03 0.04 0.02 0.01 0.01 0.01 0.02 0.02 0.01 0.00 0.00 0.00 0.00
0.06 0.06 0.05 0.07 0.09 0.11 0.09 0.08 0.08 0.06 0.04 0.03 0.04 0.05 0.04 0.04 0.03 0.03 0.02 0.03 0.03 0.05 0.05 0.04 0.08 0.07 0.06 0.06 0.04 0.07 0.04 0.02 0.02 0.01 0.01 0.01 0.01 0.01 0.01 0.01 0.01 0.01 0.00
0.05 0.08 0.09 0.09 0.09 0.09 0.08 0.05 0.05 0.05 0.05 0.05 0.03 0.03 0.03 0.03 0.03 0.04 0.04 0.07 0.05 0.06 0.06 0.05 0.06 0.07 0.06 0.05 0.08 0.11 0.07 0.04 0.03 0.03 0.02 0.01 0.02 0.02 0.02 0.02 0.02 0.03 0.02
0.04 0.06 0.10 0.12 0.11 0.10 0.09 0.07 0.07 0.07 0.06 0.06 0.05 0.05 0.03 0.02 0.02 0.03 0.05 0.06 0.07 0.09 0.09 0.08 0.08 0.10 0.10 0.06 0.09 0.14 0.13 0.13 0.07 0.03 0.03 0.02 0.03 0.02 0.01 0.01 0.02 0.04 0.04
0.04 0.05 0.06 0.11 0.13 0.16 0.14 0.11 0.10 0.10 0.08 0.08 0.07 0.06 0.04 0.03 0.03 0.03 0.04 0.05 0.07 0.06 0.08 0.08 0.09 0.10 0.11 0.08 0.07 0.09 0.11 0.12 0.08 0.06 0.04 0.03 0.03 0.03 0.02 0.02 0.01 0.01 0.02
0.03 0.04 0.07 0.09 0.11 0.13 0.14 0.13 0.11 0.09 0.08 0.07 0.07 0.07 0.09 0.08 0.07 0.05 0.05 0.05 0.06 0.06 0.10 0.07 0.09 0.10 0.12 0.09 0.08 0.07 0.06 0.10 0.11 0.11 0.08 0.04 0.03 0.03 0.02 0.01 0.00 0.01 0.02
0.03 0.05 0.08 0.10 0.11 0.11 0.12 0.11 0.10 0.12 0.11 0.09 0.08 0.12 0.12 0.12 0.11 0.09 0.08 0.08 0.07 0.08 0.08 0.08 0.13 0.10 0.09 0.08 0.09 0.08 0.07 0.09 0.09 0.10 0.12 0.07 0.05 0.02 0.01 0.01 0.01 0.01 0.02
0.04 0.05 0.07 0.12 0.16 0.13 0.12 0.10 0.08 0.09 0.11 0.11 0.12 0.11 0.10 0.11 0.11 0.10 0.10 0.10 0.09 0.10 0.09 0.06 0.08 0.07 0.09 0.09 0.09 0.08 0.08 0.08 0.05 0.07 0.08 0.07 0.05 0.02 0.02 0.02 0.03 0.03 0.03
MSLP
1008.95 1009.09 1009.42 1009.90 1010.46 1011.01 1011.49 1011.86 1012.09 1012.23 1012.30 1012.37 1012.47 1012.62 1012.83 1013.06 1013.30 1013.53 1013.73 1013.90 1014.06 1014.22 1014.38 1014.55 1014.72 1014.88 1015.02 1015.14 1015.23 1015.30 1015.38 1015.47 1015.58 1015.73 1015.90 1016.09 1016.27 1016.45 1016.61 1016.76 1016.90 1017.06 1017.23
1008.92 1009.18 1009.61 1010.16 1010.76 1011.32 1011.78 1012.09 1012.27 1012.36 1012.40 1012.47 1012.59 1012.79 1013.04 1013.31 1013.58 1013.82 1014.01 1014.17 1014.30 1014.45 1014.61 1014.79 1014.98 1015.18 1015.34 1015.46 1015.55 1015.60 1015.65 1015.71 1015.81 1015.95 1016.14 1016.35 1016.57 1016.79 1016.98 1017.16 1017.32 1017.48 1017.64
1008.84 1009.22 1009.75 1010.39 1011.04 1011.61 1012.05 1012.33 1012.47 1012.53 1012.56 1012.64 1012.78 1013.01 1013.28 1013.58 1013.85 1014.06 1014.23 1014.35 1014.45 1014.58 1014.74 1014.93 1015.15 1015.37 1015.56 1015.69 1015.78 1015.82 1015.86 1015.91 1016.01 1016.16 1016.38 1016.63 1016.89 1017.15 1017.38 1017.57 1017.74 1017.89 1018.03
1008.70 1009.21 1009.85 1010.58 1011.28 1011.88 1012.32 1012.58 1012.71 1012.76 1012.79 1012.88 1013.04 1013.29 1013.58 1013.87 1014.12 1014.31 1014.43 1014.51 1014.58 1014.69 1014.85 1015.06 1015.30 1015.53 1015.73 1015.87 1015.95 1015.99 1016.02 1016.08 1016.19 1016.38 1016.64 1016.94 1017.25 1017.55 1017.80 1018.00 1018.16 1018.30 1018.42
1008.54 1009.17 1009.93 1010.75 1011.51 1012.15 1012.60 1012.87 1012.99 1013.04 1013.08 1013.18 1013.36 1013.62 1013.91 1014.19 1014.42 1014.57 1014.65 1014.70 1014.76 1014.86 1015.02 1015.24 1015.49 1015.73 1015.92 1016.05 1016.12 1016.15 1016.17 1016.24 1016.38 1016.62 1016.93 1017.28 1017.64 1017.97 1018.24 1018.44 1018.59 1018.70 1018.80
1008.39 1009.13 1010.00 1010.90 1011.73 1012.41 1012.88 1013.16 1013.28 1013.34 1013.39 1013.51 1013.70 1013.97 1014.25 1014.52 1014.73 1014.86 1014.93 1014.97 1015.03 1015.13 1015.30 1015.53 1015.78 1016.01 1016.18 1016.28 1016.31 1016.32 1016.33 1016.41 1016.58 1016.86 1017.22 1017.63 1018.03 1018.39 1018.66 1018.85 1018.98 1019.06 1019.14
1008.28 1009.11 1010.06 1011.03 1011.92 1012.62 1013.12 1013.40 1013.54 1013.61 1013.68 1013.81 1014.01 1014.28 1014.57 1014.84 1015.04 1015.17 1015.25 1015.30 1015.38 1015.51 1015.69 1015.92 1016.16 1016.36 1016.49 1016.54 1016.53 1016.50 1016.50 1016.58 1016.78 1017.09 1017.51 1017.96 1018.40 1018.77 1019.04 1019.22 1019.32 1019.37 1019.43
1008.22 1009.11 1010.11 1011.12 1012.03 1012.75 1013.26 1013.55 1013.71 1013.79 1013.88 1014.02 1014.24 1014.52 1014.82 1015.09 1015.31 1015.46 1015.56 1015.65 1015.76 1015.93 1016.14 1016.37 1016.59 1016.75 1016.83 1016.82 1016.75 1016.67 1016.64 1016.72 1016.94 1017.30 1017.75 1018.24 1018.71 1019.09 1019.36 1019.52 1019.59 1019.61 1019.65
1008.22 1009.11 1010.12 1011.13 1012.03 1012.75 1013.25 1013.56 1013.73 1013.83 1013.94 1014.12 1014.36 1014.65 1014.97 1015.25 1015.49 1015.67 1015.81 1015.95 1016.11 1016.30 1016.54 1016.77 1016.97 1017.09 1017.11 1017.04 1016.91 1016.79 1016.75 1016.82 1017.06 1017.45 1017.94 1018.46 1018.95 1019.35 1019.61 1019.75 1019.80 1019.80 1019.81
1008.24 1009.10 1010.07 1011.04 1011.90 1012.59 1013.08 1013.39 1013.58 1013.72 1013.87 1014.08 1014.35 1014.67 1015.00 1015.31 1015.56 1015.77 1015.95 1016.13 1016.33 1016.56 1016.81 1017.04 1017.22 1017.30 1017.27 1017.16 1016.99 1016.85 1016.79 1016.88 1017.13 1017.55 1018.07 1018.63 1019.14 1019.55 1019.82 1019.95 1019.98 1019.96 1019.95
1008.27 1009.06 1009.96 1010.85 1011.64 1012.28 1012.75 1013.07 1013.28 1013.46 1013.66 1013.92 1014.23 1014.58 1014.93 1015.26 1015.53 1015.77 1015.97 1016.18 1016.40 1016.65 1016.90 1017.13 1017.28 1017.34 1017.29 1017.15 1016.97 1016.82 1016.78 1016.89 1017.17 1017.62 1018.17 1018.75 1019.29 1019.71 1019.99 1020.12 1020.15 1020.13 1020.11
1008.27 1008.98 1009.78 1010.57 1011.28 1011.87 1012.31 1012.63 1012.88 1013.11 1013.37 1013.68 1014.04 1014.42 1014.80 1015.14 1015.43 1015.67 1015.89 1016.10 1016.33 1016.58 1016.83 1017.04 1017.18 1017.22 1017.17 1017.03 1016.87 1016.75 1016.74 1016.88 1017.20 1017.68 1018.25 1018.85 1019.40 1019.84 1020.14 1020.29 1020.33 1020.32 1020.30
1008.26 1008.88 1009.57 1010.26 1010.88 1011.40 1011.82 1012.15 1012.43 1012.72 1013.04 1013.41 1013.82 1014.24 1014.63 1014.99 1015.28 1015.53 1015.75 1015.96 1016.18 1016.41 1016.64 1016.84 1016.97 1017.02 1016.97 1016.87 1016.75 1016.68 1016.71 1016.90 1017.24 1017.74 1018.32 1018.92 1019.48 1019.93 1020.25 1020.44 1020.52 1020.53 1020.53
1008.22 1008.77 1009.37 1009.96 1010.50 1010.97 1011.36 1011.70 1012.02 1012.36 1012.74 1013.16 1013.61 1014.05 1014.47 1014.83 1015.14 1015.39 1015.60 1015.80 1016.01 1016.23 1016.44 1016.63 1016.75 1016.81 1016.80 1016.74 1016.67 1016.66 1016.74 1016.96 1017.32 1017.81 1018.38 1018.97 1019.52 1019.97 1020.31 1020.53 1020.66 1020.72 1020.75
1008.20 1008.70 1009.23 1009.74 1010.22 1010.64 1011.01 1011.35 1011.70 1012.08 1012.49 1012.95 1013.42 1013.89 1014.32 1014.69 1015.01 1015.27 1015.49 1015.70 1015.90 1016.11 1016.31 1016.48 1016.61 1016.69 1016.71 1016.70 1016.69 1016.73 1016.86 1017.09 1017.45 1017.91 1018.43 1018.97 1019.48 1019.92 1020.27 1020.53 1020.71 1020.82 1020.91
1008.19 1008.68 1009.17 1009.63 1010.06 1010.45 1010.80 1011.15 1011.51 1011.89 1012.32 1012.78 1013.26 1013.73 1014.16 1014.55 1014.88 1015.17 1015.41 1015.64 1015.86 1016.08 1016.28 1016.46 1016.60 1016.70 1016.76 1016.80 1016.84 1016.92 1017.06 1017.29 1017.61 1018.01 1018.46 1018.91 1019.36 1019.75 1020.09 1020.37 1020.60 1020.78 1020.93
1008.23 1008.72 1009.20 1009.64 1010.04 1010.41 1010.75 1011.09 1011.44 1011.81 1012.22 1012.65 1013.10 1013.55 1013.97 1014.37 1014.72 1015.05 1015.34 1015.62 1015.88 1016.12 1016.35 1016.55 1016.71 1016.83 1016.93 1017.00 1017.09 1017.19 1017.34 1017.55 1017.80 1018.11 1018.45 1018.80 1019.14 1019.47 1019.77 1020.05 1020.31 1020.55 1020.77
1008.30 1008.81 1009.29 1009.73 1010.13 1010.49 1010.83 1011.15 1011.47 1011.81 1012.16 1012.53 1012.92 1013.32 1013.72 1014.11 1014.49 1014.86 1015.22 1015.56 1015.88 1016.18 1016.44 1016.67 1016.87 1017.02 1017.15 1017.27 1017.38 1017.50 1017.64 1017.81 1018.00 1018.20 1018.41 1018.63 1018.86 1019.09 1019.33 1019.59 1019.86 1020.15 1020.42
1008.38 1008.91 1009.40 1009.85 1010.26 1010.64 1010.97 1011.28 1011.57 1011.85 1012.13 1012.42 1012.72 1013.05 1013.40 1013.77 1014.16 1014.57 1014.99 1015.40 1015.80 1016.16 1016.48 1016.76 1016.99 1017.19 1017.36 1017.51 1017.65 1017.79 1017.92 1018.05 1018.17 1018.28 1018.37 1018.45 1018.55 1018.67 1018.83 1019.03 1019.29 1019.60 1019.91
1008.41 1008.96 1009.47 1009.95 1010.38 1010.78 1011.12 1011.43 1011.69 1011.91 1012.11 1012.30 1012.51 1012.74 1013.02 1013.35 1013.74 1014.18 1014.65 1015.13 1015.59 1016.02 1016.40 1016.73 1017.01 1017.25 1017.46 1017.65 1017.83 1017.99 1018.13 1018.25 1018.31 1018.34 1018.33 1018.29 1018.26 1018.26 1018.32 1018.46 1018.68 1018.97 1019.30
1008.37 1008.92 1009.45 1009.95 1010.42 1010.85 1011.22 1011.54 1011.79 1011.97 1012.10 1012.20 1012.30 1012.44 1012.63 1012.91 1013.27 1013.71 1014.21 1014.73 1015.24 1015.73 1016.16 1016.54 1016.87 1017.15 1017.41 1017.65 1017.88 1018.08 1018.25 1018.36 1018.41 1018.39 1018.30 1018.17 1018.04 1017.93 1017.89 1017.93 1018.08 1018.33 1018.65
1008.22 1008.77 1009.31 1009.83 1010.34 1010.81 1011.23 1011.57 1011.83 1012.00 1012.09 1012.12 1012.14 1012.18 1012.30 1012.50 1012.82 1013.23 1013.72 1014.26 1014.80 1015.32 1015.80 1016.21 1016.58 1016.91 1017.21 1017.51 1017.78 1018.04 1018.25 1018.39 1018.45 1018.42 1018.29 1018.11 1017.89 1017.69 1017.55 1017.50 1017.57 1017.75 1018.02
1007.95 1008.49 1009.03 1009.57 1010.11 1010.63 1011.10 1011.50 1011.80 1011.98 1012.06 1012.07 1012.03 1012.01 1012.05 1012.19 1012.44 1012.81 1013.27 1013.80 1014.34 1014.87 1015.36 1015.80 1016.20 1016.56 1016.91 1017.24 1017.57 1017.87 1018.13 1018.32 1018.41 1018.40 1018.27 1018.06 1017.80 1017.54 1017.32 1017.19 1017.16 1017.26 1017.46
1007.58 1008.10 1008.64 1009.19 1009.75 1010.31 1010.84 1011.30 1011.65 1011.88 1012.00 1012.01 1011.96 1011.91 1011.90 1011.98 1012.18 1012.49 1012.91 1013.40 1013.92 1014.44 1014.92 1015.37 1015.78 1016.16 1016.53 1016.90 1017.26 1017.60 1017.91 1018.14 1018.28 1018.30 1018.20 1018.00 1017.74 1017.44 1017.18 1016.97 1016.86 1016.86 1016.98
1007.18 1007.67 1008.19 1008.73 1009.30 1009.88 1010.45 1010.96 1011.37 1011.67 1011.84 1011.89 1011.87 1011.83 1011.81 1011.86 1012.01 1012.28 1012.65 1013.10 1013.58 1014.07 1014.54 1014.98 1015.38 1015.76 1016.14 1016.51 1016.88 1017.25 1017.58 1017.85 1018.02 1018.09 1018.04 1017.88 1017.64 1017.35 1017.07 1016.82 1016.65 1016.57 1016.60
1006.78 1007.26 1007.74 1008.25 1008.80 1009.37 1009.95 1010.49 1010.96 1011.32 1011.55 1011.67 1011.70 1011.69 1011.69 1011.74 1011.87 1012.11 1012.44 1012.85 1013.30 1013.76 1014.21 1014.62 1015.01 1015.38 1015.74 1016.10 1016.46 1016.82 1017.15 1017.43 1017.65 1017.76 1017.77 1017.67 1017.48 1017.24 1016.98 1016.72 1016.52 1016.38 1016.33
Thickness
5808 5803 5797 5795 5792 5790 5788 5785 5783 5781 5779 5777 5776 5774 5772 5771 5770 5769 5767 5766 5765 5764 5763 5761 5760 5760 5758 5757 5756 5755 5755 5753 5752 5751 5749 5747 5746 5745 5744 5743 5742 5740 5738
5812 5803 5797 5795 5792 5789 5787 5784 5782 5779 5777 5776 5774 5772 5771 5769 5768 5767 5766 5765 5764 5763 5762 5760 5759 5758 5757 5756 5755 5754 5753 5752 5750 5749 5747 5746 5744 5744 5743 5742 5741 5738 5736
5812 5803 5797 5794 5791 5788 5785 5783 5781 5778 5776 5774 5772 5771 5769 5768 5767 5766 5764 5763 5762 5762 5760 5759 5758 5757 5755 5754 5753 5752 5752 5750 5749 5748 5747 5745 5743 5741 5741 5740 5738 5736 5734
5811 5804 5798 5793 5790 5787 5784 5782 5780 5777 5775 5773 5771 5770 5768 5766 5765 5764 5763 5762 5761 5760 5759 5757 5756 5755 5754 5753 5752 5751 5751 5749 5748 5748 5747 5745 5742 5739 5738 5737 5736 5734 5733
5811 5803 5795 5792 5788 5785 5783 5781 5778 5776 5774 5772 5770 5768 5767 5765 5764 5763 5762 5761 5759 5758 5757 5756 5754 5753 5752 5752 5751 5751 5750 5749 5748 5748 5746 5743 5739 5737 5736 5735 5734 5732 5731
5809 5801 5794 5790 5787 5784 5782 5779 5777 5775 5773 5771 5769 5767 5766 5764 5763 5762 5760 5759 5758 5756 5755 5754 5753 5751 5751 5751 5750 5750 5749 5749 5748 5747 5744 5741 5737 5736 5734 5733 5732 5731 5729
5810 5801 5793 5789 5786 5783 5781 5778 5776 5774 5772 5770 5768 5767 5765 5763 5762 5761 5759 5758 5756 5755 5754 5753 5751 5750 5750 5749 5749 5749 5748 5748 5748 5746 5743 5739 5735 5734 5733 5731 5730 5729 5728
5811 5801 5791 5787 5784 5781 5779 5777 5775 5773 5771 5769 5767 5766 5764 5762 5761 5759 5758 5757 5755 5754 5752 5751 5750 5749 5748 5748 5748 5748 5748 5748 5749 5746 5741 5737 5734 5732 5731 5730 5729 5728 5726
5812 5801 5792 5787 5783 5780 5778 5776 5774 5772 5770 5768 5767 5765 5763 5762 5760 5758 5757 5756 5754 5753 5751 5750 5749 5748 5747 5747 5748 5748 5748 5748 5748 5745 5740 5735 5733 5731 5730 5728 5727 5726 5725
5812 5803 5795 5789 5784 5780 5777 5775 5773 5771 5769 5767 5766 5764 5763 5761 5760 5758 5756 5755 5753 5752 5750 5749 5748 5747 5747 5747 5747 5747 5747 5748 5747 5744 5739 5734 5732 5730 5729 5727 5726 5725 5724
5810 5804 5799 5793 5787 5783 5779 5776 5773 5770 5768 5767 5765 5764 5763 5762 5761 5758 5757 5754 5753 5751 5750 5749 5748 5747 5746 5746 5747 5747 5747 5747 5746 5743 5738 5734 5732 5730 5728 5727 5726 5724 5723
5805 5804 5802 5796 5790 5788 5784 5777 5775 5772 5769 5768 5767 5765 5764 5764 5762 5760 5757 5755 5753 5752 5750 5749 5748 5746 5746 5747 5747 5747 5748 5748 5746 5741 5737 5734 5731 5729 5728 5726 5725 5724 5723
5807 5805 5803 5797 5792 5790 5786 5780 5778 5776 5772 5770 5769 5767 5766 5765 5763 5760 5758 5755 5753 5752 5752 5750 5748 5748 5748 5749 5749 5749 5750 5749 5745 5740 5735 5733 5731 5729 5727 5726 5725 5724 5722
5806 5804 5802 5798 5793 5791 5787 5784 5781 5779 5774 5773 5771 5770 5768 5767 5766 5764 5761 5758 5756 5755 5754 5753 5752 5752 5752 5752 5752 5751 5751 5748 5744 5739 5735 5733 5731 5729 5727 5726 5725 5724 5722
5805 5803 5802 5798 5792 5790 5787 5785 5783 5781 5778 5776 5773 5771 5770 5769 5767 5765 5762 5760 5759 5757 5756 5756 5755 5754 5754 5753 5753 5752 5751 5749 5744 5740 5736 5734 5732 5730 5728 5726 5725 5724 5723
5804 5802 5801 5797 5792 5787 5784 5782 5783 5782 5779 5778 5775 5772 5771 5770 5767 5765 5763 5762 5761 5760 5759 5757 5756 5755 5754 5753 5752 5751 5750 5748 5745 5741 5737 5734 5732 5731 5729 5727 5726 5725 5724
5804 5801 5798 5794 5790 5785 5782 5780 5782 5782 5780 5778 5776 5773 5770 5769 5768 5766 5764 5762 5762 5761 5760 5758 5757 5755 5754 5753 5751 5750 5750 5748 5746 5743 5739 5736 5734 5732 5730 5728 5727 5726 5725
5804 5799 5797 5794 5788 5783 5780 5779 5780 5781 5781 5779 5776 5772 5770 5769 5767 5766 5765 5764 5763 5762 5760 5758 5756 5754 5753 5752 5750 5750 5750 5748 5746 5744 5742 5740 5737 5735 5732 5730 5729 5727 5726
5804 5799 5794 5792 5787 5782 5779 5777 5779 5779 5779 5778 5776 5773 5770 5767 5766 5765 5765 5765 5763 5762 5760 5759 5756 5754 5751 5751 5751 5750 5750 5748 5748 5747 5745 5743 5741 5739 5736 5733 5731 5729 5728
5803 5798 5792 5789 5786 5781 5778 5776 5776 5776 5776 5776 5775 5773 5770 5767 5766 5765 5764 5763 5763 5762 5760 5758 5755 5754 5752 5751 5751 5751 5751 5751 5749 5749 5748 5747 5745 5743 5740 5737 5734 5731 5730
5801 5795 5791 5786 5784 5780 5776 5772 5770 5770 5772 5773 5773 5772 5769 5767 5765 5764 5764 5763 5762 5760 5759 5758 5755 5752 5751 5752 5747 5745 5748 5752 5751 5750 5750 5749 5748 5746 5744 5741 5738 5735 5733
5798 5794 5789 5785 5783 5780 5777 5775 5773 5771 5771 5771 5771 5770 5768 5766 5764 5763 5761 5761 5760 5758 5757 5756 5754 5751 5751 5752 5746 5739 5736 5739 5746 5752 5751 5750 5750 5749 5747 5745 5742 5740 5738
5798 5794 5791 5786 5783 5779 5777 5774 5772 5770 5768 5767 5766 5766 5766 5765 5763 5763 5761 5760 5759 5758 5755 5755 5754 5750 5747 5750 5750 5743 5734 5730 5738 5747 5751 5752 5751 5749 5749 5748 5746 5744 5742
5799 5796 5792 5787 5782 5779 5776 5773 5769 5765 5762 5764 5765 5765 5764 5763 5762 5761 5760 5759 5758 5758 5756 5755 5754 5752 5748 5744 5747 5749 5748 5744 5736 5736 5744 5750 5751 5750 5750 5750 5749 5747 5745
5800 5796 5791 5786 5781 5778 5775 5773 5769 5766 5765 5765 5765 5763 5761 5761 5760 5759 5759 5758 5757 5757 5756 5754 5754 5752 5749 5746 5745 5746 5746 5746 5744 5737 5734 5742 5747 5750 5751 5751 5750 5749 5748
5798 5795 5790 5784 5779 5777 5775 5773 5769 5766 5764 5762 5761 5758 5758 5757 5757 5757 5757 5757 5756 5756 5755 5754 5753 5751 5749 5747 5746 5746 5745 5742 5741 5741 5737 5739 5741 5747 5751 5752 5751 5750 5749